WP4T Weather Reports


time (UTC)temp
C
wind
direction
speed
KPH
gust
KPH
rain 1hr
cm
rain 24hr
cm
rain mn
cm
humidity
%
barometer
mb
20260507201513 28 24 8.0 19.3 0.10 0.10 0.10 86 1014.5
20260507200018 30 109 6.4 17.7 0.00 0.00 0.00 78 1014.9
20260507194518 30 130 9.7 20.9 0.00 0.00 0.00 77 1014.7
20260507193008 30 132 6.4 14.5 0.00 0.00 0.00 76 1014.6
20260507191517 30 136 6.4 14.5 0.00 0.00 0.00 76 1014.9
20260507190016 30 180 1.6 9.7 0.00 0.00 0.00 74 1014.9
20260507184520 30 107 6.4 16.1 0.00 0.00 0.00 74 1014.9
20260507183007 30 133 9.7 19.3 0.00 0.00 0.00 75 1015.1
20260507181517 31 195 8.0 22.5 0.00 0.00 0.00 73 1015.3
20260507180015 31 134 6.4 22.5 0.00 0.00 0.00 74 1015.3
20260507174518 32 71 3.2 24.1 0.00 0.00 0.00 72 1015.5
20260507173030 31 121 11.3 20.9 0.00 0.00 0.00 73 1015.7
20260507171517 31 108 11.3 22.5 0.00 0.00 0.00 74 1016.0
20260507170017 31 144 4.8 24.1 0.00 0.00 0.00 74 1016.2
20260507164517 31 105 8.0 24.1 0.00 0.00 0.00 74 1016.3
20260507163026 31 113 8.0 20.9 0.00 0.00 0.00 74 1016.4
20260507161526 31 128 11.3 22.5 0.00 0.00 0.00 74 1016.7
20260507160010 31 121 8.0 30.6 0.00 0.00 0.00 74 1016.8
20260507154521 31 171 8.0 22.5 0.00 0.00 0.00 72 1016.8
20260507153020 31 118 9.7 29.0 0.00 0.00 0.00 75 1016.8
20260507151520 30 148 12.9 25.7 0.00 0.00 0.00 76 1016.8
20260507150020 30 95 9.7 24.1 0.00 0.00 0.00 77 1016.9
20260507144516 30 94 9.7 19.3 0.00 0.00 0.00 77 1016.9
20260507143016 31 113 6.4 20.9 0.00 0.00 0.00 74 1017.0
20260507141523 31 115 3.2 16.1 0.00 0.00 0.00 74 1017.1
20260507140022 30 132 8.0 16.1 0.00 0.00 0.00 76 1017.0
20260507134508 30 107 4.8 19.3 0.00 0.00 0.00 75 1017.0
20260507133022 30 69 1.6 12.9 0.00 0.00 0.00 75 1016.8
20260507131520 30 75 4.8 14.5 0.00 0.00 0.00 77 1017.0
20260507130021 30 136 3.2 14.5 0.00 0.00 0.00 78 1016.8
20260507124523 30 144 3.2 14.5 0.00 0.00 0.00 79 1016.7
20260507123011 30 23 3.2 9.7 0.00 0.00 0.00 79 1016.6
20260507121522 28 48 0.0 4.8 0.00 0.00 0.00 81 1016.4
20260507120022 27 17 1.6 4.8 0.00 0.00 0.00 84 1016.2
20260507114523 26 63 1.6 6.4 0.00 0.00 0.00 87 1016.1
20260507113023 25 34 0.0 4.8 0.00 0.00 0.00 89 1016.0
20260507111523 23 26 0.0 3.2 0.00 0.00 0.00 91 1016.1
20260507110022 22 24 0.0 3.2 0.00 0.00 0.00 91 1016.3
20260507104524 22 24 0.0 3.2 0.00 0.00 0.00 91 1016.0
20260507103026 22 24 1.6 6.4 0.00 0.00 0.00 91 1015.9
20260507101517 22 20 0.0 6.4 0.00 0.00 0.00 90 1015.7
20260507100019 22 38 1.6 4.8 0.00 0.00 0.00 91 1015.5
20260507094504 22 24 0.0 1.6 0.00 0.00 0.00 91 1015.3
20260507093009 22 26 0.0 1.6 0.00 0.00 0.00 91 1015.3
20260507091514 22 26 0.0 1.6 0.00 0.00 0.00 91 1015.3
20260507090019 22 26 0.0 3.2 0.00 0.00 0.00 91 1015.4
20260507084528 22 26 0.0 1.6 0.00 0.00 0.00 91 1015.4
20260507083007 22 25 0.0 1.6 0.00 0.00 0.00 90 1015.5
20260507081519 22 23 0.0 1.6 0.00 0.00 0.00 91 1015.4
20260507080015 22 23 0.0 3.2 0.00 0.00 0.00 91 1015.3
20260507074521 22 24 0.0 0.0 0.00 0.00 0.00 91 1015.3
20260507073022 22 23 0.0 3.2 0.00 0.00 0.00 91 1015.3
20260507071507 23 38 0.0 4.8 0.00 0.00 0.00 91 1015.5
20260507070018 23 38 0.0 0.0 0.00 0.00 0.00 91 1015.5
20260507064519 23 38 0.0 4.8 0.00 0.00 0.00 91 1015.7
20260507063020 23 42 0.0 3.2 0.00 0.00 0.00 91 1016.0
20260507061504 23 44 0.0 4.8 0.00 0.00 0.00 90 1016.1
20260507060009 23 51 0.0 3.2 0.00 0.00 0.00 90 1016.4
20260507054514 23 52 0.0 3.2 0.00 0.00 0.00 90 1016.6
20260507053020 23 52 0.0 4.8 0.00 0.00 0.00 90 1016.7
20260507051522 23 65 0.0 3.2 0.00 0.00 0.00 90 1016.9
20260507050006 23 75 0.0 1.6 0.00 0.00 0.00 90 1017.0
20260507044529 23 77 0.0 3.2 0.00 0.00 0.00 90 1017.2
20260507043016 24 74 0.0 1.6 0.00 0.00 0.00 90 1017.4
20260507041522 24 74 0.0 1.6 0.00 0.00 0.00 90 1017.6
20260507040031 24 74 0.0 1.6 0.00 0.00 0.00 90 1017.8
20260507034510 24 74 0.0 3.2 0.00 0.00 0.00 90 1017.9
20260507033014 24 78 0.0 1.6 0.00 0.00 0.00 90 1018.0
20260507031517 24 78 0.0 1.6 0.00 0.00 0.00 90 1018.2
20260507030023 25 78 0.0 1.6 0.00 0.00 0.00 90 1018.3
20260507024524 25 78 0.0 1.6 0.00 0.00 0.00 90 1018.3
20260507023010 25 78 0.0 1.6 0.00 0.00 0.00 89 1018.1
20260507021520 25 78 0.0 3.2 0.00 0.00 0.00 89 1017.9
20260507020037 25 95 0.0 1.6 0.00 0.00 0.00 89 1018.0
20260507014525 25 96 0.0 3.2 0.00 0.00 0.00 89 1017.9
20260507013029 25 99 0.0 4.8 0.00 0.00 0.00 89 1017.8
20260507011515 25 99 0.0 1.6 0.00 0.00 0.00 89 1017.6
20260507010026 25 99 0.0 0.0 0.00 0.00 0.00 89 1017.4
20260507004530 26 99 0.0 4.8 0.00 0.00 0.00 89 1017.4
20260507003028 26 99 0.0 4.8 0.00 0.00 0.00 88 1017.3
20260507001536 26 47 0.0 0.0 0.00 0.00 0.00 87 1017.1
20260507000016 26 46 0.0 0.0 0.00 0.00 0.00 87 1017.0
20260506234522 27 47 0.0 3.2 0.00 0.00 0.00 87 1016.8
20260506233026 27 30 0.0 9.7 0.00 0.00 0.00 87 1016.6
20260506231529 27 74 3.2 12.9 0.00 0.00 0.00 86 1016.4
20260506230017 27 74 3.2 14.5 0.00 0.00 0.00 85 1016.3
20260506224521 27 90 4.8 12.9 0.00 0.00 0.00 85 1016.2
20260506223022 28 140 4.8 16.1 0.00 0.00 0.00 84 1016.0
20260506221523 28 117 9.7 20.9 0.00 0.00 0.00 83 1015.9
20260506220026 28 132 11.3 20.9 0.00 0.00 0.00 81 1015.7
20260506214516 28 76 6.4 25.7 0.00 0.00 0.00 80 1015.6
20260506213019 29 150 11.3 29.0 0.00 0.00 0.00 79 1015.7
20260506211523 30 93 11.3 22.5 0.00 0.00 0.00 76 1015.5
20260506210028 30 126 9.7 22.5 0.00 0.00 0.00 76 1015.5
20260506204528 30 162 14.5 24.1 0.00 0.00 0.00 74 1015.4
20260506203020 30 132 9.7 25.7 0.00 0.00 0.00 74 1015.3